Location: Invercargill
(46.4000°S, 168.3500°E)
Time: 19:46:22
(UTC+12:00)

Cosmos 1486 Rocket - Pass Details

Date: 14 May 2021
Orbit: 759 x 783 km, 74.1° (Epoch: 15 June)

Event Time Altitude Azimuth Distance (km) Brightness Sun altitude
Rises 17:54:08 0° 202° (SSW) 3,271 7.3 -5.4°
Reaches altitude 10° 17:56:31 10° 202° (SSW) 2,340 6.5 -5.8°
Maximum altitude 18:01:52 89° 106° (ESE) 787 4.1 -6.6°
Drops below altitude 10° 18:07:10 10° 20° (NNE) 2,327 6.5 -7.5°
Sets 18:09:32 0° 20° (NNE) 3,251 7.2 -7.9°
